EW6013 Weather Reports


time (UTC)temp
F
wind
direction
speed
knots
gust
knots
rain 1hr
in
rain 24hr
in
rain mn
in
humidity
%
barometer
mb
20210723164016 78 132 0.9 3.5 0.00 0.00 0.00 57 1016.0
20210723163516 78 83 0.0 1.7 0.00 0.00 0.00 55 1016.0
20210723163016 78 82 0.0 2.6 0.00 0.00 0.00 57 1016.0
20210723162516 77 269 0.0 2.6 0.00 0.00 0.00 57 1016.1
20210723162016 77 251 0.0 4.3 0.00 0.00 0.00 54 1016.1
20210723161516 77 302 0.9 4.3 0.00 0.00 0.00 57 1016.2
20210723161016 77 36 0.9 4.3 0.00 0.00 0.00 58 1016.2
20210723160516 77 84 0.0 2.6 0.00 0.00 0.00 59 1016.3
20210723160016 77 334 0.0 6.1 0.00 0.00 0.00 57 1016.3
20210723155516 77 287 1.7 6.1 0.00 0.00 0.00 54 1016.4
20210723155016 77 283 0.9 5.2 0.00 0.00 0.00 59 1016.5
20210723154516 76 12 0.0 2.6 0.00 0.00 0.00 59 1016.5
20210723154016 76 22 0.9 3.5 0.00 0.00 0.00 60 1016.5
20210723153516 76 256 0.0 6.1 0.00 0.00 0.00 60 1016.4
20210723153016 76 317 0.9 6.1 0.00 0.00 0.00 64 1016.5
20210723152516 76 81 0.0 2.6 0.00 0.00 0.00 62 1016.6
20210723152016 76 243 0.0 2.6 0.00 0.00 0.00 66 1016.6
20210723151516 76 255 0.0 2.6 0.00 0.00 0.00 62 1016.6
20210723151016 75 0.0 0.0 0.00 0.00 0.00 64 1016.7
20210723150516 75 0.0 0.0 0.00 0.00 0.00 62 1016.7
20210723150016 75 0.0 0.9 0.00 0.00 0.00 62 1016.8
20210723145516 75 226 0.0 4.3 0.00 0.00 0.00 62 1016.8
20210723145016 75 102 0.0 4.3 0.00 0.00 0.00 63 1016.8
20210723144516 75 0.0 0.0 0.00 0.00 0.00 62 1016.7
20210723144016 75 0.0 0.0 0.00 0.00 0.00 61 1016.7
20210723143516 75 0.0 0.0 0.00 0.00 0.00 63 1016.8
20210723143016 75 0.0 0.0 0.00 0.00 0.00 63 1016.8
20210723142516 74 0.0 0.9 0.00 0.00 0.00 64 1016.8
20210723142016 74 314 0.0 3.5 0.00 0.00 0.00 65 1016.7
20210723141516 73 288 0.0 3.5 0.00 0.00 0.00 68 1016.7
20210723141016 73 88 0.0 2.6 0.00 0.00 0.00 68 1016.8
20210723140516 72 318 0.9 4.3 0.00 0.00 0.00 68 1016.8
20210723140016 71 48 0.0 4.3 0.00 0.00 0.00 69 1016.8
20210723135516 71 287 0.0 2.6 0.00 0.00 0.00 71 1016.9
20210723135016 70 315 0.0 4.3 0.00 0.00 0.00 72 1016.9
20210723134516 69 268 0.9 4.3 0.00 0.00 0.00 74 1016.9
20210723134016 69 326 0.0 5.2 0.00 0.00 0.00 75 1016.9
20210723133516 69 306 0.9 7.0 0.00 0.00 0.00 75 1016.9
20210723133016 68 295 0.9 7.0 0.00 0.00 0.00 75 1016.9
20210723132516 68 198 0.0 3.5 0.00 0.00 0.00 79 1016.9
20210723132016 67 275 0.0 3.5 0.00 0.00 0.00 77 1016.9
20210723131516 66 299 0.0 5.2 0.00 0.00 0.00 79 1017.0
20210723131016 66 8 0.9 5.2 0.00 0.00 0.00 82 1017.0
20210723130516 65 53 0.9 3.5 0.00 0.00 0.00 84 1017.0
20210723130016 65 312 0.0 1.7 0.00 0.00 0.00 85 1016.9
20210723125516 65 332 0.0 1.7 0.00 0.00 0.00 86 1016.9
20210723125016 64 285 0.0 0.9 0.00 0.00 0.00 89 1016.9
20210723124516 64 0.0 0.9 0.00 0.00 0.00 88 1016.8
20210723124016 64 285 0.0 2.6 0.00 0.00 0.00 89 1016.8
20210723123516 63 287 0.0 2.6 0.00 0.00 0.00 89 1016.8
20210723123016 63 0.0 0.9 0.00 0.00 0.00 89 1016.7
20210723122516 63 332 0.0 1.7 0.00 0.00 0.00 90 1016.7
20210723122016 62 257 0.0 1.7 0.00 0.00 0.00 91 1016.7
20210723121516 62 0.0 0.0 0.00 0.00 0.00 92 1016.7
20210723121016 62 0.0 0.9 0.00 0.00 0.00 93 1016.7
20210723120516 61 279 0.0 0.9 0.00 0.00 0.00 95 1016.6
20210723120016 61 0.0 0.0 0.00 0.00 0.00 96 1016.7
20210723115516 61 0.0 1.7 0.00 0.00 0.00 97 1016.6
20210723115016 60 279 0.0 1.7 0.00 0.00 0.00 97 1016.6
20210723114516 60 285 0.0 1.7 0.00 0.00 0.00 97 1016.5
20210723114016 60 0.0 0.0 0.00 0.00 0.00 97 1016.5
20210723113516 60 0.0 0.0 0.00 0.00 0.00 97 1016.5
20210723113016 59 0.0 0.0 0.00 0.00 0.00 97 1016.5
20210723112515 59 0.0 0.0 0.00 0.00 0.00 97 1016.4
20210723112016 59 0.0 0.0 0.00 0.00 0.00 97 1016.4
20210723111516 59 0.0 0.0 0.00 0.00 0.00 97 1016.4
20210723111016 59 0.0 0.0 0.00 0.00 0.00 97 1016.4
20210723110516 58 0.0 0.0 0.00 0.00 0.00 97 1016.4
20210723110015 58 0.0 0.0 0.00 0.00 0.00 97 1016.3
20210723105516 58 0.0 0.0 0.00 0.00 0.00 97 1016.3
20210723105015 58 0.0 0.0 0.00 0.00 0.00 97 1016.3
20210723104515 58 0.0 0.0 0.00 0.00 0.00 97 1016.2
20210723104015 57 0.0 0.0 0.00 0.00 0.00 97 1016.2
20210723103515 57 0.0 0.0 0.00 0.00 0.00 97 1016.1
20210723103016 57 0.0 0.0 0.00 0.00 0.00 96 1016.1
20210723102515 57 0.0 0.0 0.00 0.00 0.00 96 1016.1
20210723102015 57 0.0 0.0 0.00 0.00 0.00 96 1016.0
20210723101515 57 0.0 0.0 0.00 0.00 0.00 96 1016.0
20210723101015 57 0.0 0.0 0.00 0.00 0.00 96 1015.9
20210723100515 57 0.0 0.0 0.00 0.00 0.00 96 1015.9
20210723100015 57 0.0 0.0 0.00 0.00 0.00 96 1015.8
20210723095515 57 0.0 0.0 0.00 0.00 0.00 96 1015.7
20210723095016 57 0.0 0.0 0.00 0.00 0.00 96 1015.7
20210723094515 57 0.0 0.0 0.00 0.00 0.00 96 1015.6
20210723094015 57 0.0 0.0 0.00 0.00 0.00 96 1015.6
20210723093515 57 0.0 0.0 0.00 0.00 0.00 95 1015.5
20210723093016 58 0.0 0.0 0.00 0.00 0.00 95 1015.5
20210723092515 58 0.0 0.0 0.00 0.00 0.00 95 1015.5
20210723092015 58 0.0 0.0 0.00 0.00 0.00 96 1015.4
20210723091515 58 0.0 0.0 0.00 0.00 0.00 96 1015.4
20210723091015 58 0.0 0.0 0.00 0.00 0.00 96 1015.4
20210723090515 58 0.0 0.0 0.00 0.00 0.00 95 1015.3
20210723090015 58 0.0 0.0 0.00 0.00 0.00 95 1015.3
20210723085515 58 0.0 0.0 0.00 0.00 0.00 95 1015.2
20210723085015 58 0.0 0.0 0.00 0.00 0.00 95 1015.2
20210723084515 58 0.0 0.0 0.00 0.00 0.00 95 1015.2
20210723084015 58 0.0 0.0 0.00 0.00 0.00 95 1015.1
20210723083515 58 0.0 0.0 0.00 0.00 0.00 95 1015.1
20210723083015 59 0.0 0.0 0.00 0.00 0.00 95 1015.2
20210723082515 59 0.0 0.0 0.00 0.00 0.00 94 1015.1
20210723082015 59 0.0 0.0 0.00 0.00 0.00 94 1015.1
20210723081515 59 0.0 0.0 0.00 0.00 0.00 94 1015.1
20210723081015 59 0.0 0.0 0.00 0.00 0.00 94 1015.1
20210723080516 59 0.0 0.0 0.00 0.00 0.00 94 1015.1
20210723080019 59 0.0 0.0 0.00 0.00 0.00 94 1015.1
20210723075515 60 0.0 0.0 0.00 0.00 0.00 94 1015.2
20210723075015 60 0.0 0.0 0.00 0.00 0.00 93 1015.2
20210723074515 60 0.0 0.0 0.00 0.00 0.00 93 1015.2
20210723074015 60 0.0 0.0 0.00 0.00 0.00 93 1015.2
20210723073515 60 0.0 0.0 0.00 0.00 0.00 92 1015.2
20210723073015 60 0.0 0.0 0.00 0.00 0.00 92 1015.2
20210723072515 60 0.0 0.0 0.00 0.00 0.00 92 1015.3
20210723072015 60 0.0 0.0 0.00 0.00 0.00 92 1015.3
20210723071515 60 0.0 0.0 0.00 0.00 0.00 91 1015.2
20210723071015 61 0.0 0.0 0.00 0.00 0.00 92 1015.2
20210723070515 61 0.0 0.0 0.00 0.00 0.00 92 1015.2
20210723070015 61 0.0 0.0 0.00 0.00 0.00 92 1015.3
20210723065515 61 0.0 0.0 0.00 0.00 0.00 91 1015.3
20210723065015 61 0.0 0.0 0.00 0.00 0.00 92 1015.3
20210723064515 61 0.0 0.0 0.00 0.00 0.00 91 1015.3
20210723064015 62 0.0 0.0 0.00 0.00 0.00 92 1015.3
20210723063515 62 0.0 0.0 0.00 0.00 0.00 92 1015.4
20210723063015 62 0.0 0.0 0.00 0.00 0.00 92 1015.4
20210723062515 62 0.0 0.0 0.00 0.00 0.00 92 1015.4
20210723062015 62 0.0 0.0 0.00 0.00 0.00 92 1015.5
20210723061515 62 0.0 0.0 0.00 0.00 0.00 92 1015.5
20210723061015 62 0.0 0.0 0.00 0.00 0.00 92 1015.5
20210723060515 62 0.0 0.0 0.00 0.00 0.00 92 1015.5
20210723060015 62 0.0 0.0 0.00 0.00 0.00 92 1015.5
20210723055515 62 0.0 0.0 0.00 0.00 0.00 92 1015.5
20210723055015 62 0.0 0.0 0.00 0.00 0.00 93 1015.6
20210723054515 62 0.0 0.0 0.00 0.00 0.00 93 1015.6
20210723054015 62 0.0 0.0 0.00 0.00 0.00 92 1015.6
20210723053515 62 0.0 0.0 0.00 0.00 0.00 92 1015.6
20210723053015 63 0.0 0.0 0.00 0.00 0.00 92 1015.6
20210723052515 63 0.0 0.0 0.00 0.00 0.00 93 1015.5
20210723052015 63 0.0 0.0 0.00 0.00 0.00 92 1015.6
20210723051515 63 0.0 0.0 0.00 0.00 0.00 92 1015.6
20210723051015 63 0.0 0.0 0.00 0.00 0.00 92 1015.6
20210723050515 63 0.0 0.0 0.00 0.00 0.00 92 1015.6
20210723050015 63 0.0 0.0 0.00 0.00 0.00 92 1015.7
20210723045515 63 0.0 0.0 0.00 0.00 0.00 92 1015.7
20210723045015 63 0.0 0.0 0.00 0.00 0.00 92 1015.7
20210723044517 63 0.0 0.0 0.00 0.00 0.00 92 1015.8
20210723044017 63 0.0 0.0 0.00 0.00 0.00 92 1015.8
20210723043516 63 0.0 0.0 0.00 0.00 0.00 92 1015.8
20210723043017 63 0.0 0.0 0.00 0.00 0.00 92 1015.8
20210723042517 63 0.0 0.0 0.00 0.00 0.00 92 1015.8
20210723042017 63 0.0 0.0 0.00 0.00 0.00 92 1015.8
20210723041517 63 0.0 0.0 0.00 0.00 0.00 92 1015.7
20210723041017 63 0.0 0.0 0.00 0.00 0.00 92 1015.8
20210723040516 63 0.0 0.0 0.00 0.00 0.00 91 1015.8
20210723040015 63 0.0 0.0 0.00 0.00 0.00 91 1015.8
20210723035515 63 0.0 0.0 0.00 0.00 0.00 91 1015.8
20210723035015 63 0.0 0.0 0.00 0.00 0.00 91 1015.8
20210723034516 63 0.0 0.0 0.00 0.00 0.00 91 1015.7
20210723034015 64 0.0 0.0 0.00 0.00 0.00 91 1015.7
20210723033515 64 0.0 0.0 0.00 0.00 0.00 91 1015.7
20210723033015 64 0.0 0.0 0.00 0.00 0.00 91 1015.8
20210723032515 64 0.0 0.0 0.00 0.00 0.00 91 1015.8
20210723032015 64 0.0 0.0 0.00 0.00 0.00 91 1015.8
20210723031515 64 0.0 0.0 0.00 0.00 0.00 91 1015.8
20210723031015 64 0.0 0.0 0.00 0.00 0.00 90 1015.8
20210723030516 64 0.0 0.0 0.00 0.00 0.00 90 1015.8
20210723030015 64 0.0 0.0 0.00 0.00 0.00 91 1015.7
20210723025515 64 0.0 0.0 0.00 0.00 0.00 91 1015.6
20210723025015 64 0.0 0.0 0.00 0.00 0.00 91 1015.6
20210723024515 64 0.0 0.0 0.00 0.00 0.00 91 1015.6
20210723024015 64 0.0 0.0 0.00 0.00 0.00 91 1015.5
20210723023515 64 0.0 0.0 0.00 0.00 0.00 91 1015.5
20210723023015 65 0.0 0.0 0.00 0.00 0.00 91 1015.5
20210723022515 65 0.0 0.0 0.00 0.00 0.00 91 1015.5
20210723022015 65 0.0 0.0 0.00 0.00 0.00 90 1015.5
20210723021515 65 0.0 0.0 0.00 0.00 0.00 91 1015.4
20210723021015 65 0.0 0.0 0.00 0.00 0.00 91 1015.4
20210723020515 65 0.0 0.0 0.00 0.00 0.00 91 1015.4
20210723020015 65 0.0 0.0 0.00 0.00 0.00 90 1015.4
20210723015515 65 0.0 0.0 0.00 0.00 0.00 90 1015.4
20210723015015 65 0.0 0.0 0.00 0.00 0.00 90 1015.3
20210723014515 65 0.0 0.0 0.00 0.00 0.00 89 1015.3
20210723014015 65 0.0 0.0 0.00 0.00 0.00 89 1015.3
20210723013515 65 0.0 0.0 0.00 0.00 0.00 89 1015.2
20210723013015 66 0.0 0.0 0.00 0.00 0.00 88 1015.2
20210723012515 66 0.0 0.0 0.00 0.00 0.00 88 1015.2
20210723012015 66 0.0 0.0 0.00 0.00 0.00 87 1015.2
20210723011515 66 0.0 0.0 0.00 0.00 0.00 87 1015.1
20210723011015 66 0.0 0.0 0.00 0.00 0.00 87 1014.9
20210723010515 67 0.0 0.0 0.00 0.00 0.00 87 1014.9
20210723010015 67 0.0 0.0 0.00 0.00 0.00 86 1014.9
20210723005515 67 0.0 0.0 0.00 0.00 0.00 85 1014.8
20210723005015 67 0.0 0.0 0.00 0.00 0.00 85 1014.7
20210723004515 68 0.0 0.0 0.00 0.00 0.00 84 1014.6
20210723004015 68 0.0 0.0 0.00 0.00 0.00 84 1014.6
20210723003515 68 0.0 0.0 0.00 0.00 0.00 85 1014.5
20210723003015 68 0.0 0.0 0.00 0.00 0.00 85 1014.6
20210723002515 68 0.0 0.0 0.00 0.00 0.00 85 1014.6
20210723002015 68 0.0 0.0 0.00 0.00 0.00 85 1014.6
20210723001515 68 0.0 0.0 0.00 0.00 0.00 85 1014.6
20210723001015 69 0.0 0.0 0.00 0.00 0.00 84 1014.6
20210723000515 69 0.0 0.0 0.00 0.00 0.00 84 1014.5
20210723000015 69 0.0 0.0 0.00 0.00 0.00 82 1014.6
20210722235515 70 0.0 0.0 0.00 0.00 0.00 81 1014.5
20210722235015 70 0.0 0.0 0.00 0.00 0.00 79 1014.5
20210722234515 70 0.0 0.0 0.00 0.00 0.00 78 1014.4
20210722234015 71 0.0 0.0 0.00 0.00 0.00 77 1014.4
20210722233514 71 0.0 0.0 0.00 0.00 0.00 76 1014.3
20210722233014 71 0.0 0.0 0.00 0.00 0.00 75 1014.3
20210722232517 72 0.0 0.0 0.00 0.00 0.00 75 1014.2
20210722232017 72 0.0 0.0 0.00 0.00 0.00 73 1014.2
20210722231516 72 0.0 0.0 0.00 0.00 0.00 73 1014.2
20210722231017 73 0.0 0.0 0.00 0.00 0.00 72 1014.1
20210722230516 73 0.0 0.0 0.00 0.00 0.00 71 1014.1
20210722230017 73 0.0 0.0 0.00 0.00 0.00 71 1014.1
20210722225516 73 0.0 0.0 0.00 0.00 0.00 70 1014.0
20210722225017 74 0.0 0.0 0.00 0.00 0.00 70 1013.9
20210722224516 74 0.0 0.0 0.00 0.00 0.00 69 1013.9
20210722224017 74 0.0 0.0 0.00 0.00 0.00 69 1013.8
20210722223517 75 0.0 0.0 0.00 0.00 0.00 67 1013.8
20210722223017 75 0.0 0.0 0.00 0.00 0.00 67 1013.7
20210722222516 75 0.0 0.0 0.00 0.00 0.00 70 1013.7
20210722222016 75 0.0 0.0 0.00 0.00 0.00 70 1013.7
20210722221516 74 0.0 1.7 0.00 0.00 0.00 72 1013.6
20210722221016 74 52 0.0 1.7 0.00 0.00 0.00 71 1013.6
20210722220516 74 0.0 0.0 0.00 0.00 0.00 74 1013.5
20210722220017 74 0.0 0.0 0.00 0.00 0.00 73 1013.5
20210722215516 74 0.0 0.0 0.00 0.00 0.00 72 1013.5
20210722215016 75 0.0 0.0 0.00 0.00 0.00 69 1013.6
20210722214517 75 0.0 0.0 0.00 0.00 0.00 67 1013.5
20210722214016 75 0.0 0.0 0.00 0.00 0.00 65 1013.5
20210722213516 76 0.0 0.0 0.00 0.00 0.00 65 1013.4
20210722213016 76 0.0 0.0 0.00 0.00 0.00 63 1013.3
20210722212516 77 0.0 0.0 0.00 0.00 0.00 61 1013.3
20210722212016 77 0.0 0.0 0.00 0.00 0.00 60 1013.3
20210722211517 77 0.0 0.0 0.00 0.00 0.00 61 1013.3
20210722211016 77 0.0 0.0 0.00 0.00 0.00 65 1013.4
20210722210516 77 0.0 0.9 0.00 0.00 0.00 60 1013.3
20210722210016 76 300 0.0 0.9 0.00 0.00 0.00 61 1013.3
20210722205516 76 300 0.0 0.9 0.00 0.00 0.00 59 1013.2
20210722205016 77 56 0.0 0.9 0.00 0.00 0.00 61 1013.3
20210722204516 77 0.0 0.0 0.00 0.00 0.00 61 1013.3
20210722204017 77 0.0 0.0 0.00 0.00 0.00 58 1013.3
20210722203516 77 0.0 3.5 0.00 0.00 0.00 56 1013.3
20210722203016 77 78 0.0 3.5 0.00 0.00 0.00 57 1013.2
20210722202516 77 285 0.0 2.6 0.00 0.00 0.00 56 1013.3
20210722202016 77 269 0.0 0.9 0.00 0.00 0.00 56 1013.3
20210722201516 77 0.0 0.0 0.00 0.00 0.00 60 1013.3
20210722201016 76 0.0 0.0 0.00 0.00 0.00 61 1013.3
20210722200516 76 0.0 0.0 0.00 0.00 0.00 62 1013.3
20210722200016 76 0.0 1.7 0.00 0.00 0.00 63 1013.3
20210722195516 76 294 0.0 2.6 0.00 0.00 0.00 59 1013.3
20210722195016 76 282 0.0 2.6 0.00 0.00 0.00 59 1013.3
20210722194516 77 244 0.0 2.6 0.00 0.00 0.00 57 1013.3
20210722194016 77 247 0.0 2.6 0.00 0.00 0.00 57 1013.3
20210722193516 78 53 0.0 2.6 0.00 0.00 0.00 54 1013.3
20210722193016 79 54 0.0 5.2 0.00 0.00 0.00 54 1013.3
20210722192516 79 349 0.9 7.8 0.00 0.00 0.00 54 1013.2
20210722192016 79 294 0.9 7.8 0.00 0.00 0.00 52 1013.1
20210722191516 80 321 0.0 3.5 0.00 0.00 0.00 52 1013.2
20210722191016 80 308 0.9 7.0 0.00 0.00 0.00 53 1013.2
20210722190516 80 287 0.9 7.0 0.00 0.00 0.00 49 1013.2
20210722190016 80 254 0.0 2.6 0.00 0.00 0.00 51 1013.2
20210722185516 80 192 0.0 1.7 0.00 0.00 0.00 51 1013.2
20210722185016 80 325 0.0 2.6 0.00 0.00 0.00 55 1013.2
20210722184516 80 180 0.0 2.6 0.00 0.00 0.00 53 1013.2
20210722184016 80 297 0.0 0.9 0.00 0.00 0.00 51 1013.2
20210722183516 80 278 0.0 2.6 0.00 0.00 0.00 51 1013.2
20210722183016 80 97 0.0 5.2 0.00 0.00 0.00 49 1013.3
20210722182516 80 284 0.9 5.2 0.00 0.00 0.00 53 1013.3
20210722182016 80 0.0 2.6 0.00 0.00 0.00 56 1013.2
20210722181516 79 86 0.0 2.6 0.00 0.00 0.00 55 1013.2
20210722181016 79 295 0.0 7.8 0.00 0.00 0.00 54 1013.2
20210722180516 79 279 0.9 7.8 0.00 0.00 0.00 54 1013.3
20210722180016 78 270 0.0 3.5 0.00 0.00 0.00 60 1013.3
20210722175516 78 272 0.0 1.7 0.00 0.00 0.00 57 1013.3
20210722175016 78 30 0.0 2.6 0.00 0.00 0.00 58 1013.3
20210722174516 79 125 0.0 2.6 0.00 0.00 0.00 57 1013.3
20210722174016 79 57 0.9 2.6 0.00 0.00 0.00 58 1013.4
20210722173516 78 265 0.0 2.6 0.00 0.00 0.00 58 1013.4
20210722173016 78 72 0.0 0.9 0.00 0.00 0.00 60 1013.4
20210722172516 78 0.0 0.9 0.00 0.00 0.00 58 1013.4
20210722172016 78 50 0.0 5.2 0.00 0.00 0.00 60 1013.4
20210722171516 78 283 0.9 5.2 0.00 0.00 0.00 59 1013.4
20210722171016 77 91 0.0 2.6 0.00 0.00 0.00 64 1013.5
20210722170516 77 284 0.0 2.6 0.00 0.00 0.00 59 1013.5
20210722170016 77 267 0.0 1.7 0.00 0.00 0.00 60 1013.6
20210722165516 77 314 0.0 1.7 0.00 0.00 0.00 65 1013.7
20210722165016 77 311 0.0 0.9 0.00 0.00 0.00 64 1013.7
20210722164516 77 323 0.0 0.9 0.00 0.00 0.00 60 1013.8